Location: Calvatone
(45.1167°N, 10.4333°E)
Time: 16:03:47
(UTC+00:00)

Cosmos 1892 - Pass Details

Date: 28 January 2023
Orbit: 486 x 506 km, 82.5° (Epoch: 30 March)

Event Time Altitude Azimuth Distance (km) Brightness Sun altitude
Rises 18:23:07 0° 191° (SSW) 2,554 6.4 -21.8°
Reaches altitude 10° 18:25:12 10° 193° (SSW) 1,682 5.5 -22.1°
Maximum altitude 18:28:52 74° 278° (W) 521 2.7 -22.8°
Enters shadow 18:29:05 71° 312° (NW) 529 2.7 -22.8°
